Trieste–Friuli Venezia Giulia Airport

LIPQ · Friuli-Venecia Julia, Italia

2 de octubre de 2022

Hora Código Tiempo Temp. Visibilidad Cielo nuboso Viento METAR/SPECI
01:20
V
14 °C 10 km+ - 100° 100° 6 kt METAR LIPQ 012320Z AUTO 10006KT 9999 NCD 14/13 Q1017
00:50
V
14 °C 10 km+ - 100° 100° 5 kt METAR LIPQ 012250Z AUTO 10005KT 9999 NCD 14/14 Q1017
00:20
V
15 °C 10 km+ - 090° 090° 4 kt METAR LIPQ 012220Z AUTO 09004KT 9999 NCD 15/14 Q1016

1 de octubre de 2022

Hora Código Tiempo Temp. Visibilidad Cielo nuboso Viento METAR/SPECI
23:50
V
14 °C 10 km+ - 100° 100° 4 kt METAR LIPQ 012150Z AUTO 10004KT 9999 NCD 14/13 Q1016
23:20
V
14 °C 10 km+ - Var Var 2 kt METAR LIPQ 012120Z AUTO VRB02KT 9999 NCD 14/13 Q1016
22:50
V
15 °C 10 km+ - 110° 110° 4 kt METAR LIPQ 012050Z AUTO 11004KT 9999 FEW140/// 15/14 Q1016
22:20
V
15 °C 10 km+ 14.000 ft 110° 110° 3 kt METAR LIPQ 012020Z AUTO 11003KT 9999 BKN140/// 15/13 Q1016
21:50
V
15 °C 10 km+ 14.000 ft 100° 100° 3 kt METAR LIPQ 011950Z AUTO 10003KT 9999 BKN140/// 15/14 Q1015
21:20
V
16 °C 10 km+ - 120° 120° 3 kt METAR LIPQ 011920Z AUTO 12003KT 9999 FEW050/// 16/14 Q1015
20:50
V
17 °C 10 km+ 17.000 ft 150° 150° 2 kt METAR LIPQ 011850Z AUTO 15002KT 9999 SCT049/// BKN170/// 17/15 Q1015
20:20
V
17 °C 10 km+ 4.700 ft 120° 120° 4 kt METAR LIPQ 011820Z AUTO 12004KT 9999 BKN047/// 17/15 Q1015
19:50
V
17 °C 10 km+ 4.000 ft 100° 100° 4 kt METAR LIPQ 011750Z AUTO 10004KT 9999 BKN040/// 17/15 Q1014
19:20
V
18 °C 10 km+ - Var Var 3 kt METAR LIPQ 011720Z AUTO VRB03KT 9999 FEW049/// 18/14 Q1014
18:50
V
18 °C 10 km+ - 180° 180° 3 kt METAR LIPQ 011650Z AUTO 18003KT 9999 FEW043/// 18/14 Q1014
18:20
V
19 °C 10 km+ 4.000 ft 210° 210° 5 kt METAR LIPQ 011620Z AUTO 21005KT 9999 BKN040/// 19/14 Q1014
17:50
V
19 °C 10 km+ - 190° 190° 5 kt METAR LIPQ 011550Z AUTO 19005KT 160V230 9999 SCT040/// 19/16 Q1014
17:20
V
19 °C 10 km+ 15.000 ft 190° 190° 6 kt METAR LIPQ 011520Z AUTO 19006KT 9999 SCT036/// BKN150/// 19/15 Q1014
16:50
V
19 °C 10 km+ 15.000 ft 200° 200° 8 kt METAR LIPQ 011450Z AUTO 20008KT 9999 FEW034/// BKN150/// 19/15 Q1014
16:20
V
20 °C 10 km+ 16.000 ft 220° 220° 10 kt METAR LIPQ 011420Z AUTO 22010KT 9999 SCT034/// BKN160/// 20/14 Q1014
15:50
V
20 °C 10 km+ 17.000 ft 220° 220° 10 kt METAR LIPQ 011350Z AUTO 22010KT 9999 FEW025/// BKN170/// 20/14 Q1014
15:20
M
20 °C 10 km+ 2.300 ft 220° 220° 9 kt METAR LIPQ 011320Z AUTO 22009KT 9999 BKN023/// 20/14 Q1014
14:50
V
20 °C 10 km+ - 210° 210° 10 kt METAR LIPQ 011250Z AUTO 21010KT 180V240 9999 FEW022/// 20/15 Q1014
14:20
V
20 °C 10 km+ - 220° 220° 9 kt METAR LIPQ 011220Z AUTO 22009KT 180V250 9999 FEW023/// 20/14 Q1014
13:50
V
20 °C 10 km+ - 210° 210° 10 kt METAR LIPQ 011150Z AUTO 21010KT 9999 FEW200/// 20/14 Q1015
13:20
V
20 °C 10 km+ - 220° 220° 9 kt METAR LIPQ 011120Z AUTO 22009KT 9999 NCD 20/14 Q1015
12:50
V
20 °C 10 km+ - 230° 230° 9 kt METAR LIPQ 011050Z AUTO 23009KT 190V260 9999 FEW027/// 20/14 Q1015
12:20
V
19 °C 10 km+ - 210° 210° 9 kt METAR LIPQ 011020Z AUTO 21009KT 9999 SCT024/// 19/14 Q1015
11:50
V
19 °C 10 km+ - 190° 190° 4 kt METAR LIPQ 010950Z AUTO 19004KT 150V230 9999 FEW019/// 19/14 Q1015
11:20
V
19 °C 10 km+ 3.600 ft 210° 210° 3 kt METAR LIPQ 010920Z AUTO 21003KT 140V260 9999 BKN036/// 19/14 Q1015
10:50
M
18 °C 10 km+ 2.800 ft 250° 250° 5 kt METAR LIPQ 010850Z AUTO 25005KT 9999 OVC028/// 18/14 Q1015
10:20
M
17 °C 10 km+ 2.500 ft 200° 200° 3 kt METAR LIPQ 010820Z AUTO 20003KT 160V250 9999 BKN025/// 17/15 Q1015
09:50
V
17 °C 10 km+ - Var Var 2 kt METAR LIPQ 010750Z AUTO VRB02KT 9999 FEW023/// 17/15 Q1015
09:20
V
16 °C 10 km+ 5.000 ft Var Var 2 kt METAR LIPQ 010720Z AUTO VRB02KT 9999 SCT016/// BKN050/// 16/15 Q1015
08:50
M
15 °C 10 km+ 2.100 ft 270° 270° 6 kt METAR LIPQ 010650Z AUTO 27006KT 9999 FEW003/// SCT011/// BKN021/// 15/14 Q1014
08:20
L
15 °C 10 km+ 200 ft 270° 270° 6 kt METAR LIPQ 010620Z AUTO 27006KT 9999 BKN002/// OVC067/// 15/15 Q1014
07:50
L
16 °C 400 m 200 ft 240° 240° 6 kt METAR LIPQ 010550Z AUTO 24006KT 0400 R09/0600D FG BKN002/// BKN072/// 16/15 Q1013
07:20
V
16 °C 10 km+ 5.700 ft 170° 170° 3 kt METAR LIPQ 010520Z AUTO 17003KT 9999 SCT015/// BKN057/// BKN076/// 16/16 Q1013
06:50
V
16 °C 10 km+ - 110° 110° 5 kt METAR LIPQ 010450Z AUTO 11005KT 9999 FEW017/// SCT075/// 16/15 Q1013
06:20
V
16 °C 10 km+ 5.400 ft 110° 110° 6 kt METAR LIPQ 010420Z AUTO 11006KT 9999 FEW018/// BKN054/// BKN078/// 16/16 Q1012
05:50
V
17 °C 10 km+ 5.000 ft 100° 100° 5 kt METAR LIPQ 010350Z AUTO 10005KT 9999 FEW020/// BKN050/// BKN089/// 17/16 Q1013
05:20
V
17 °C 10 km+ 4.500 ft 110° 110° 5 kt METAR LIPQ 010320Z AUTO 11005KT 9999 FEW020/// BKN045/// BKN092/// 17/16 Q1013
04:50
V
16 °C 10 km+ 5.900 ft 060° 060° 4 kt METAR LIPQ 010250Z AUTO 06004KT 9999 FEW020/// SCT046/// BKN059/// 16/16 Q1013
04:20
V
16 °C 10 km+ 8.400 ft 060° 060° 3 kt METAR LIPQ 010220Z AUTO 06003KT 9999 SCT017/// SCT020/// OVC084/// 16/16 Q1012
03:50
M
16 °C 10 km+ 1.600 ft 050° 050° 3 kt METAR LIPQ 010150Z AUTO 05003KT 010V070 9999 -RA BKN016/// OVC047/// 16/16 Q1012 RERA
03:20
V
16 °C 10 km+ 4.000 ft 050° 050° 4 kt METAR LIPQ 010120Z AUTO 05004KT 9999 -RA FEW002/// BKN040/// BKN095/// 16/15 Q1012
02:50
M
16 °C 10 km+ 1.700 ft 350° 350° 4 kt METAR LIPQ 010050Z AUTO 35004KT 300V020 9999 -RA BKN017/// BKN046/// 16/15 Q1013 RERA
02:20
M
16 °C 10 km+ 1.900 ft Var Var 2 kt METAR LIPQ 010020Z AUTO VRB02KT 9999 BKN019/// 16/16 Q1012
01:50
M
16 °C 10 km+ 2.100 ft Var Var 2 kt METAR LIPQ 302350Z AUTO VRB02KT 9999 OVC021/// 16/15 Q1012 RERA
01:20
M
16 °C 10 km+ 2.300 ft 040° 040° 4 kt METAR LIPQ 302320Z AUTO 04004KT 9999 RA OVC023/// 16/15 Q1012
00:50
M
16 °C 7 km 2.200 ft 040° 040° 3 kt METAR LIPQ 302250Z AUTO 04003KT 010V070 7000 RA BKN022/// OVC072/// 16/15 Q1012
00:20
V
16 °C 10 km+ 6.900 ft 050° 050° 3 kt METAR LIPQ 302220Z AUTO 05003KT 350V110 9999 RA OVC069/// 16/15 Q1012

30 de septiembre de 2022

Hora Código Tiempo Temp. Visibilidad Cielo nuboso Viento METAR/SPECI
23:50
V
16 °C 10 km+ 5.800 ft 050° 050° 3 kt METAR LIPQ 302150Z AUTO 05003KT 010V100 9999 -RA BKN058/// BKN080/// OVC094/// 16/15 Q1013
23:20
V
15 °C 10 km+ 8.100 ft 030° 030° 4 kt METAR LIPQ 302120Z AUTO 03004KT 9999 -RA FEW027/// OVC081/// 15/15 Q1013
22:50
V
16 °C 10 km+ 6.200 ft 040° 040° 3 kt METAR LIPQ 302050Z AUTO 04003KT 9999 SCT038/// BKN062/// BKN087/// 16/15 Q1012
22:20
V
16 °C 10 km+ 3.500 ft 050° 050° 3 kt METAR LIPQ 302020Z AUTO 05003KT 020V080 9999 FEW025/// BKN035/// BKN050/// 16/15 Q1012
21:50
M
16 °C 10 km+ 2.800 ft 080° 080° 4 kt METAR LIPQ 301950Z AUTO 08004KT 040V110 9999 OVC028/// 16/15 Q1012
21:20
V
15 °C 10 km+ 3.300 ft 040° 040° 5 kt METAR LIPQ 301920Z AUTO 04005KT 010V070 9999 -RA OVC033/// 15/15 Q1012 RERA
20:50
V
15 °C 10 km+ 5.100 ft 080° 080° 3 kt METAR LIPQ 301850Z AUTO 08003KT 350V130 9999 +RA OVC051/// 15/15 Q1012
20:20
V
16 °C 8 km 7.000 ft Var Var 2 kt METAR LIPQ 301820Z AUTO VRB02KT 8000 RA OVC070/// 16/15 Q1012
19:50
V
16 °C 10 km+ 9.400 ft Var Var 2 kt METAR LIPQ 301750Z AUTO VRB02KT 9999 -RA OVC094/// 16/15 Q1012
19:20
V
16 °C 10 km+ 10.000 ft 040° 040° 4 kt METAR LIPQ 301720Z AUTO 04004KT 9999 FEW076/// BKN100/// 16/15 Q1012
18:50
V
16 °C 10 km+ 5.200 ft 050° 050° 4 kt METAR LIPQ 301650Z AUTO 05004KT 9999 -RA FEW021/// OVC052/// 16/16 Q1012
18:20
M
17 °C 10 km+ 2.000 ft 060° 060° 3 kt METAR LIPQ 301620Z AUTO 06003KT 020V100 9999 -RA BKN020/// OVC070/// 17/16 Q1012
17:50
V
17 °C 10 km+ 4.500 ft 060° 060° 2 kt METAR LIPQ 301550Z AUTO 06002KT 9999 -RA OVC045/// 17/15 Q1012
17:20
V
17 °C 10 km+ 5.700 ft 170° 170° 4 kt METAR LIPQ 301520Z AUTO 17004KT 9999 -RA OVC057/// 17/15 Q1012 RERA
16:50
V
17 °C 10 km+ 6.200 ft 150° 150° 8 kt METAR LIPQ 301450Z AUTO 15008KT 9999 RA FEW027/// OVC062/// 17/15 Q1011
16:20
M
18 °C 10 km+ 2.800 ft 160° 160° 7 kt METAR LIPQ 301420Z AUTO 16007KT 9999 RA OVC028/// 18/15 Q1011
15:50
V
19 °C 10 km+ 8.000 ft 160° 160° 3 kt METAR LIPQ 301350Z AUTO 16003KT 9999 FEW029/// OVC080/// 19/16 Q1011
15:20
V
18 °C 10 km+ 6.800 ft 200° 200° 7 kt METAR LIPQ 301320Z AUTO 20007KT 9999 -RA OVC068/// 18/16 Q1010
14:50
V
19 °C 10 km+ 7.300 ft 190° 190° 8 kt METAR LIPQ 301250Z AUTO 19008KT 9999 -RA SCT031/// BKN073/// 19/15 Q1010
14:20
V
20 °C 10 km+ - 160° 160° 4 kt METAR LIPQ 301220Z AUTO 16004KT 9999 FEW028/// 20/16 Q1010
13:50
M
20 °C 10 km+ 2.700 ft 160° 160° 5 kt METAR LIPQ 301150Z AUTO 16005KT 9999 BKN027/// BKN130/// 20/16 Q1010
13:20
V
20 °C 10 km+ - 170° 170° 6 kt METAR LIPQ 301120Z AUTO 17006KT 9999 FEW023/// 20/16 Q1010
12:50
V
20 °C 10 km+ 7.100 ft 160° 160° 9 kt METAR LIPQ 301050Z AUTO 16009KT 9999 FEW021/// BKN071/// 20/16 Q1009
12:20
M
20 °C 10 km+ 2.000 ft 150° 150° 10 kt METAR LIPQ 301020Z AUTO 15010KT 9999 -RA BKN020/// 20/16 Q1009
11:50
M
19 °C 10 km+ 2.000 ft 150° 150° 9 kt METAR LIPQ 300950Z AUTO 15009KT 9999 -RA BKN020/// 19/17 Q1009
11:20
V
19 °C 10 km+ 7.900 ft 140° 140° 11 kt METAR LIPQ 300920Z AUTO 14011KT 9999 SCT022/// BKN079/// BKN110/// 19/15 Q1009
10:50
M
19 °C 10 km+ 2.000 ft 150° 150° 11 kt METAR LIPQ 300850Z AUTO 15011KT 9999 BKN020/// 19/15 Q1009
10:20
M
18 °C 10 km+ 2.000 ft 110° 110° 8 kt METAR LIPQ 300820Z AUTO 11008KT 9999 BKN020/// BKN110/// 18/15 Q1008
09:50
M
17 °C 10 km+ 2.300 ft 110° 110° 7 kt METAR LIPQ 300750Z AUTO 11007KT 9999 BKN023/// BKN110/// 17/14 Q1008
09:20
M
17 °C 10 km+ 2.600 ft 090° 090° 5 kt METAR LIPQ 300720Z AUTO 09005KT 9999 BKN026/// BKN110/// BKN130/// 17/13 Q1008
08:50
V
16 °C 10 km+ 13.000 ft 090° 090° 5 kt METAR LIPQ 300650Z AUTO 09005KT 060V120 9999 FEW070/// BKN130/// 16/13 Q1007
08:20
M
16 °C 10 km+ 2.500 ft 070° 070° 3 kt METAR LIPQ 300620Z AUTO 07003KT 040V110 9999 BKN025/// BKN074/// 16/13 Q1007
07:50
M
15 °C 10 km+ 2.400 ft 090° 090° 3 kt METAR LIPQ 300550Z AUTO 09003KT 9999 BKN024/// 15/13 Q1006
07:20
V
15 °C 10 km+ 7.000 ft 080° 080° 3 kt METAR LIPQ 300520Z AUTO 08003KT 010V120 9999 FEW023/// BKN070/// BKN150/// 15/13 Q1006
06:50
M
15 °C 10 km+ 2.300 ft 100° 100° 5 kt METAR LIPQ 300450Z AUTO 10005KT 9999 OVC023/// 15/13 Q1005
06:20
M
15 °C 10 km+ 2.500 ft 110° 110° 7 kt METAR LIPQ 300420Z AUTO 11007KT 9999 BKN025/// BKN088/// 15/13 Q1005
05:50
V
14 °C 10 km+ 9.600 ft 110° 110° 9 kt METAR LIPQ 300350Z AUTO 11009KT 9999 FEW009/// BKN096/// 14/13 Q1005
05:20
I
14 °C 10 km+ 900 ft 110° 110° 9 kt METAR LIPQ 300320Z AUTO 11009KT 9999 BKN009/// 14/13 Q1004
04:50
M
14 °C 10 km+ 2.900 ft 110° 110° 7 kt METAR LIPQ 300250Z AUTO 11007KT 9999 FEW010/// BKN029/// BKN093/// 14/13 Q1004
04:20
V
14 °C 10 km+ 9.200 ft 110° 110° 5 kt METAR LIPQ 300220Z AUTO 11005KT 9999 FEW077/// BKN092/// 14/13 Q1003
03:50
V
14 °C 10 km+ 8.900 ft 120° 120° 9 kt METAR LIPQ 300150Z AUTO 12009KT 9999 BKN089/// 14/13 Q1003
03:20
V
14 °C 10 km+ 8.800 ft 110° 110° 11 kt METAR LIPQ 300120Z AUTO 11011KT 9999 BKN088/// 14/12 Q1003
02:50
V
14 °C 10 km+ 14.000 ft 100° 100° 9 kt METAR LIPQ 300050Z AUTO 10009KT 9999 FEW093/// BKN140/// 14/13 Q1003
02:20
V
14 °C 10 km+ 15.000 ft 100° 100° 10 kt METAR LIPQ 300020Z AUTO 10010KT 9999 VCTS FEW029/// OVC150/// 14/13 Q1002 RETS
01:50
V
15 °C 10 km+ 6.800 ft 100° 100° 10 kt METAR LIPQ 292350Z AUTO 10010KT 070V130 9999 VCTS SCT031/// BKN068/// BKN150/// 15/13 Q1003 RETSRA
01:20
V
15 °C 10 km+ 3.000 ft 060° 060° 6 kt METAR LIPQ 292320Z AUTO 06006KT 030V100 9999 TSRA BKN030/// BKN100/// 15/14 Q1002
00:50
V
16 °C 10 km+ 3.000 ft 110° 110° 7 kt METAR LIPQ 292250Z AUTO 11007KT 070V140 9999 +TSRA OVC030/// 16/15 Q1002
00:20
I
15 °C 2,1 km 1.800 ft Var Var 7 kt METAR LIPQ 292220Z AUTO VRB07KT 2100 +TSRA BKN018/// 15/15 Q1001

29 de septiembre de 2022

Hora Código Tiempo Temp. Visibilidad Cielo nuboso Viento METAR/SPECI
23:50
M
15 °C 10 km+ 1.700 ft 350° 350° 9 kt METAR LIPQ 292150Z AUTO 35009KT 270V030 9999 +RA BKN017/// 15/14 Q1001
23:20
V
16 °C 10 km+ 3.500 ft 350° 350° 5 kt METAR LIPQ 292120Z AUTO 35005KT 290V040 9999 VCTS FEW019/// BKN035/// 16/14 Q1002
22:50
V
16 °C 10 km+ 3.500 ft 360° 360° 4 kt METAR LIPQ 292050Z AUTO 36004KT 270V080 9999 BKN035/// OVC065/// 16/14 Q1001
22:20
V
17 °C 10 km+ 7.800 ft Var Var 4 kt METAR LIPQ 292020Z AUTO VRB04KT 9999 FEW037/// BKN078/// BKN220/// 17/14 Q1001
21:50
V
18 °C 10 km+ 23.000 ft 150° 150° 10 kt METAR LIPQ 291950Z AUTO 15010KT 9999 VCTS FEW190/// BKN230/// 18/14 Q1001
21:20
V
18 °C 10 km+ 20.000 ft 150° 150° 12 kt METAR LIPQ 291920Z AUTO 15012KT 9999 FEW027/// SCT085/// BKN200/// 18/14 Q1001
20:50
M
18 °C 10 km+ 2.700 ft 130° 130° 10 kt METAR LIPQ 291850Z AUTO 13010KT 9999 BKN027/// BKN051/// BKN085/// 18/14 Q1001
20:20
M
16 °C 10 km+ 2.800 ft 070° 070° 5 kt METAR LIPQ 291820Z AUTO 07005KT 030V130 9999 BKN028/// 16/15 Q1001
19:50
V
16 °C 10 km+ 6.900 ft 030° 030° 7 kt METAR LIPQ 291750Z AUTO 03007KT 9999 FEW030/// BKN069/// 16/15 Q1001
19:20
V
18 °C 10 km+ 5.800 ft 100° 100° 5 kt METAR LIPQ 291720Z AUTO 10005KT 070V140 9999 FEW051/// OVC058/// 18/14 Q1001
18:50
V
17 °C 10 km+ 5.200 ft 020° 020° 6 kt METAR LIPQ 291650Z AUTO 02006KT 9999 VCTS BKN052/// 17/15 Q1000 RETSRA
18:20
M
18 °C 10 km+ 2.000 ft Var Var 6 kt METAR LIPQ 291620Z AUTO VRB06KT 9999 +TSRA BKN020/// 18/15 Q0999
17:50
V
17 °C 10 km+ 5.600 ft 040° 040° 4 kt METAR LIPQ 291550Z AUTO 04004KT 9999 -RA VCTS FEW027/// SCT044/// BKN056/// 17/15 Q0999 RETSRA
17:20
V
19 °C 10 km+ 3.200 ft 240° 240° 4 kt METAR LIPQ 291520Z AUTO 24004KT 210V280 9999 +RA VCTS OVC032/// 19/16 Q1000
16:50
V
21 °C 10 km+ 9.000 ft Var Var 1 kt METAR LIPQ 291450Z AUTO VRB01KT 9999 -RA FEW032/// BKN090/// 21/14 Q0999
Datos más antiguos

Nosotros y terceros seguimos tu comportamiento en Internet en nuestro sitio web con cookies. Si continúas, asumimos que estás de acuerdo con nuestra política de cookies. Más información